Hourly Data Report for October 06, 2014

All times are specified in Local Standard Time (LST). Add 1 hour to adjust for Daylight Saving Time where and when it is observed.

KAMLOOPS A
BRITISH COLUMBIA

50°42'09.000" N
120°26'55.000" W
345.30 m
1163781
71887
YKA

Download Data

Hourly Data (October 2014)
Hourly Data Report for October 6, 2014
Temp Definition
°C
Dew Point Temp Definition
°C
Rel Hum Definition
%
Wind Dir Definition
10's deg

Wind Spd Definition
km/h
Visibility Definition
km
Stn Press Definition
kPa
Hmdx Definition


Wind Chill Definition


Weather Definition


TIME
00:00 Legend Double Dagger 11.5 10.1 91 25 4 64.4 97.43     LegendNANA
01:00 Legend Double Dagger 10.4 9.0 91 28 3 64.4 97.39     Mostly Cloudy
02:00 Legend Double Dagger 11.6 10.0 90 36 2 64.4 97.39     LegendNANA
03:00 Legend Double Dagger 11.8 10.1 89 11 8 64.4 97.40     LegendNANA
04:00 Legend Double Dagger 11.1 9.4 89 6 8 64.4 97.40     Mostly Cloudy
05:00 Legend Double Dagger 10.6 8.9 89 5 7 64.4 97.40     LegendNANA
06:00 Legend Double Dagger 10.1 8.7 91 36 4 64.4 97.44     LegendNANA
07:00 Legend Double Dagger 10.8 9.4 91 9 4 64.4 97.48     Cloudy
08:00 Legend Double Dagger 11.9 10.2 89 20 5 64.4 97.52     LegendNANA
09:00 Legend Double Dagger 13.2 10.4 83 19 7 32.2 97.58     LegendNANA
10:00 Legend Double Dagger 13.9 11.1 83 25 7 48.3 97.58     Cloudy
11:00 Legend Double Dagger 15.8 11.6 76 28 11 64.4 97.53     LegendNANA
12:00 Legend Double Dagger 16.3 12.1 76 16 5 64.4 97.53     LegendNANA
13:00 Legend Double Dagger 16.5 12.1 75 16 4 64.4 97.47     Mostly Cloudy
14:00 Legend Double Dagger 17.3 12.3 72 36 2 64.4 97.45     LegendNANA
15:00 Legend Double Dagger 17.6 12.4 71 36 2 64.4 97.42     LegendNANA
16:00 Legend Double Dagger 17.8 12.3 70 36 2 64.4 97.42     Cloudy
17:00 Legend Double Dagger 17.1 13.5 79 36 3 64.4 97.40     LegendNANA
18:00 Legend Double Dagger 16.1 13.8 86 36 3 64.4 97.42     LegendNANA
19:00 Legend Double Dagger 15.4 13.3 87 17 3 64.4 97.40     Mostly Cloudy
20:00 Legend Double Dagger 15.6 14.0 90 2 3 64.4 97.40     LegendNANA
21:00 Legend Double Dagger 14.9 13.6 92 6 4 64.4 97.41     LegendNANA
22:00 Legend Double Dagger 14.0 13.1 94 19 5 64.4 97.41     Mostly Cloudy
23:00 Legend Double Dagger 13.6 12.8 95 6 5 64.4 97.43     LegendNANA

Notes on Data Quality.

Legend

  • E = Estimated
  • M = Missing
  • NA = Not Available
  • ‡ = Partner data that is not subject to review by the National Climate Archives
Date modified: